TimeEST,TemperatureF,Dew PointF,Humidity,Sea Level PressureIn,VisibilityMPH,Wind Direction,Wind SpeedMPH,Gust SpeedMPH,PrecipitationIn,Events,Conditions,WindDirDegrees,DateUTC
12:53 AM,17.1,8.1,68,30.07,10.0,West,9.2,-,N/A,,Overcast,280,2014-01-18 05:53:00
1:53 AM,16.0,5.0,62,30.07,10.0,Variable,6.9,18.4,N/A,,Overcast,0,2014-01-18 06:53:00
2:53 AM,15.1,6.1,68,30.09,10.0,West,8.1,-,N/A,,Overcast,270,2014-01-18 07:53:00
3:53 AM,15.1,8.1,74,30.09,10.0,Variable,5.8,-,N/A,,Overcast,0,2014-01-18 08:53:00
4:53 AM,14.0,7.0,74,30.08,10.0,SW,3.5,-,N/A,,Mostly Cloudy,230,2014-01-18 09:53:00
5:53 AM,15.1,9.0,77,30.08,10.0,Variable,3.5,-,N/A,,Overcast,0,2014-01-18 10:53:00
6:53 AM,16.0,9.0,74,30.08,10.0,SW,3.5,-,N/A,,Overcast,230,2014-01-18 11:53:00
7:53 AM,16.0,10.0,77,30.08,10.0,Calm,Calm,-,N/A,,Overcast,0,2014-01-18 12:53:00
8:40 AM,17.1,10.9,77,30.05,6.0,Variable,6.9,-,0.00,Snow,Light Snow,0,2014-01-18 13:40:00
8:53 AM,17.1,10.9,77,30.11,3.0,Variable,6.9,-,0.00,Snow,Light Snow,0,2014-01-18 13:53:00
9:05 AM,17.1,10.9,77,30.05,8.0,WSW,8.1,-,0.00,,Overcast,240,2014-01-18 14:05:00
9:53 AM,19.0,12.0,74,30.12,10.0,Variable,6.9,-,0.00,,Overcast,0,2014-01-18 14:53:00
10:40 AM,21.0,12.9,71,30.06,10.0,Variable,6.9,-,N/A,,Overcast,0,2014-01-18 15:40:00
10:53 AM,21.0,12.0,68,30.12,10.0,WSW,8.1,-,N/A,,Mostly Cloudy,240,2014-01-18 15:53:00
11:44 AM,23.0,12.9,65,30.05,10.0,Variable,5.8,-,N/A,,Scattered Clouds,0,2014-01-18 16:44:00
11:53 AM,24.1,12.9,62,30.09,10.0,North,-9999.0,-,N/A,,Partly Cloudy,0,2014-01-18 16:53:00
12:21 PM,24.1,12.9,62,30.02,10.0,Variable,3.5,-,N/A,,Mostly Cloudy,0,2014-01-18 17:21:00
12:53 PM,26.1,14.0,60,30.04,10.0,Variable,4.6,-,N/A,,Scattered Clouds,0,2014-01-18 17:53:00
1:53 PM,27.0,15.1,61,30.01,10.0,North,-9999.0,-,N/A,,Partly Cloudy,0,2014-01-18 18:53:00
2:53 PM,28.9,16.0,58,29.97,10.0,SSW,8.1,-,N/A,,Clear,200,2014-01-18 19:53:00
3:53 PM,30.0,14.0,51,29.94,10.0,Variable,4.6,-,N/A,,Overcast,0,2014-01-18 20:53:00
4:53 PM,30.0,15.1,54,29.93,10.0,Variable,3.5,-,N/A,,Overcast,0,2014-01-18 21:53:00
5:53 PM,30.0,12.9,49,29.91,10.0,Calm,Calm,-,N/A,,Overcast,0,2014-01-18 22:53:00
6:53 PM,30.0,16.0,56,29.92,10.0,West,3.5,-,N/A,,Overcast,270,2014-01-18 23:53:00
7:53 PM,30.9,15.1,52,29.88,10.0,Variable,3.5,-,N/A,,Overcast,0,2014-01-19 00:53:00
8:53 PM,30.9,16.0,54,29.88,10.0,Variable,4.6,-,N/A,,Overcast,0,2014-01-19 01:53:00
9:53 PM,33.1,15.1,48,29.87,10.0,Variable,4.6,-,N/A,,Overcast,0,2014-01-19 02:53:00
10:53 PM,34.0,15.1,46,29.85,10.0,SSW,5.8,-,N/A,,Overcast,200,2014-01-19 03:53:00
11:53 PM,35.1,15.1,44,29.83,10.0,Variable,4.6,-,N/A,,Overcast,0,2014-01-19 04:53:00